Weather History for Laconia, NH

Change the Weather History Date:

Saturday, October 6, 2012

  Actual Average Record
Temperature  
Mean Temperature 62 °F -  
Max Temperature 73 °F 60 °F 80 °F (1997)
Min Temperature 50 °F 40 °F 28 °F (1998)
Degree Days  
Heating Degree Days 3    
Growing Degree Days 12 (Base 50)    
Moisture  
Dew Point 51 °F    
Average Humidity 73    
Maximum Humidity 94    
Minimum Humidity 53    
Precipitation  
Precipitation 0.07 in - - ()
Sea Level Pressure  
Sea Level Pressure 29.78 in    
Wind  
Wind Speed 6 mph (WSW)    
Max Wind Speed 18 mph    
Max Gust Speed 24 mph    
Visibility 9 miles    
Events      
Averages and records for this station are not official NWS values.
T = Trace of Precipitation, MM = Missing Value Source: NWS Daily Summary

Daily Weather History Graph

Daily Weather History Graph

Search for Another Location

Airport:

Trip Planner

Search our weather history database for the weather conditions in past years. The results will help you decide how hot, cold, wet, or windy it might be!

Date:

Astronomy

Oct. 06, 2012 Rise Set
Actual Time 6:49 AM EDT 6:16 PM EDT
Civil Twilight 6:20 AM EDT 6:45 PM EDT
Nautical Twilight 5:47 AM EDT 7:18 PM EDT
Astronomical Twilight 5:14 AM EDT 7:52 PM EDT
Moon 10:21 PM EDT (10/6) 12:50 PM EDT (10/6)
Length of Visible Light 12h 24m
Length of Day
11h 27m
Waning Gibbous, 65% of the Moon is Illuminated
Oct 6
Waning Gibbous
Oct 8
Last Quarter
Oct 15
New
Oct 21
First Quarter
Oct 29
Full

Hourly Weather History & Observations

Time (EDT) Temp. Dew Point Humidity Pressure Visibility Wind Dir Wind Speed Gust Speed Precip Events Conditions
12:15 AM 62.6 °F 55.4 °F 77% 29.87 in 10.0 mi WSW 4.6 mph - N/A   Mostly Cloudy
12:35 AM 62.6 °F 55.4 °F 77% 29.86 in 10.0 mi WNW 5.8 mph - N/A   Overcast
12:55 AM 62.6 °F 55.4 °F 77% 29.86 in 10.0 mi West 4.6 mph - N/A   Overcast
1:15 AM 62.6 °F 55.4 °F 77% 29.86 in 10.0 mi WNW 4.6 mph - N/A   Overcast
1:35 AM 62.6 °F 55.4 °F 77% 29.86 in 10.0 mi West 3.5 mph - N/A   Overcast
1:55 AM 60.8 °F 55.4 °F 82% 29.86 in 10.0 mi SW 3.5 mph - N/A   Mostly Cloudy
2:15 AM 60.8 °F 55.4 °F 82% 29.85 in 10.0 mi Calm Calm - N/A   Overcast
2:35 AM 60.8 °F 55.4 °F 82% 29.84 in 9.0 mi Calm Calm - N/A   Overcast
2:55 AM 60.8 °F 55.4 °F 82% 29.83 in 10.0 mi Calm Calm - N/A   Mostly Cloudy
3:15 AM 59.0 °F 55.4 °F 88% 29.83 in 5.0 mi Calm Calm - N/A   Scattered Clouds
3:35 AM 59.0 °F 55.4 °F 88% 29.83 in 5.0 mi Calm Calm - N/A   Scattered Clouds
3:55 AM 57.2 °F 53.6 °F 88% 29.82 in 5.0 mi Calm Calm - N/A   Partly Cloudy
4:15 AM 57.2 °F 55.4 °F 94% 29.82 in 8.0 mi West 5.8 mph - N/A   Mostly Cloudy
4:35 AM 57.2 °F 53.6 °F 88% 29.82 in 5.0 mi WSW 4.6 mph - N/A   Overcast
4:55 AM 57.2 °F 55.4 °F 94% 29.81 in 5.0 mi Calm Calm - N/A   Overcast
5:35 AM 57.2 °F 53.6 °F 88% 29.80 in 4.0 mi Calm Calm - N/A   Mostly Cloudy
5:55 AM 55.4 °F 53.6 °F 94% 29.80 in 4.0 mi Calm Calm - N/A   Scattered Clouds
6:15 AM 55.4 °F 51.8 °F 88% 29.80 in 1.2 mi Calm Calm - N/A   Scattered Clouds
6:35 AM 55.4 °F 53.6 °F 94% 29.80 in 3.0 mi Calm Calm - N/A   Clear
6:55 AM 55.4 °F 51.8 °F 88% 29.79 in 1.5 mi Calm Calm - N/A   Clear
7:15 AM 55.4 °F 51.8 °F 88% 29.79 in 3.0 mi Calm Calm - N/A   Clear
7:35 AM 57.2 °F 53.6 °F 88% 29.78 in 5.0 mi WNW 5.8 mph - N/A   Clear
7:55 AM 59.0 °F 55.4 °F 88% 29.78 in 7.0 mi West 4.6 mph - N/A   Clear
8:15 AM 62.6 °F 55.4 °F 77% 29.77 in 10.0 mi West 4.6 mph - N/A   Clear
8:35 AM 62.6 °F 55.4 °F 77% 29.77 in 10.0 mi West 6.9 mph - N/A   Clear
8:55 AM 62.6 °F 55.4 °F 77% 29.77 in 10.0 mi West 6.9 mph - N/A   Clear
9:35 AM 64.4 °F 57.2 °F 77% 29.76 in 10.0 mi SW 6.9 mph - N/A   Clear
9:55 AM 66.2 °F 57.2 °F 73% 29.76 in 10.0 mi South 6.9 mph - N/A   Clear
10:15 AM 66.2 °F 55.4 °F 68% 29.76 in 10.0 mi SSW 9.2 mph - N/A   Clear
10:35 AM 66.2 °F 55.4 °F 68% 29.75 in 10.0 mi SSW 6.9 mph - N/A   Clear
10:55 AM 68.0 °F 55.4 °F 64% 29.74 in 10.0 mi South 12.7 mph - N/A   Clear
11:15 AM 69.8 °F 55.4 °F 60% 29.72 in 10.0 mi South 15.0 mph - N/A   Clear
11:35 AM 69.8 °F 55.4 °F 60% 29.72 in 10.0 mi South 13.8 mph 20.7 mph N/A   Clear
11:55 AM 69.8 °F 55.4 °F 60% 29.71 in 10.0 mi SSW 13.8 mph 21.9 mph N/A   Clear
12:15 PM 69.8 °F 57.2 °F 64% 29.70 in 10.0 mi SSW 10.4 mph - N/A   Clear
12:35 PM 71.6 °F 57.2 °F 60% 29.69 in 10.0 mi SW 10.4 mph 16.1 mph N/A   Clear
12:55 PM 71.6 °F 55.4 °F 57% 29.68 in 10.0 mi SSW 10.4 mph 21.9 mph N/A   Clear
1:15 PM 73.4 °F 55.4 °F 53% 29.66 in 10.0 mi SSW 12.7 mph 23.0 mph N/A   Clear
1:35 PM 73.4 °F 55.4 °F 53% 29.66 in 10.0 mi SSW 16.1 mph 20.7 mph N/A   Partly Cloudy
1:55 PM 73.4 °F 55.4 °F 53% 29.65 in 10.0 mi SSW 18.4 mph 24.2 mph N/A   Mostly Cloudy
2:15 PM 71.6 °F 55.4 °F 57% 29.65 in 10.0 mi SSW 11.5 mph 19.6 mph N/A   Mostly Cloudy
2:35 PM 71.6 °F 55.4 °F 57% 29.64 in 10.0 mi South 10.4 mph - N/A   Overcast
2:55 PM 71.6 °F 55.4 °F 57% 29.64 in 10.0 mi SSW 9.2 mph - N/A   Overcast
3:15 PM 71.6 °F 55.4 °F 57% 29.65 in 10.0 mi SW 12.7 mph 18.4 mph N/A   Overcast
3:35 PM 69.8 °F 55.4 °F 60% 29.66 in 10.0 mi West 11.5 mph 17.3 mph N/A   Overcast
3:55 PM 64.4 °F 57.2 °F 77% 29.67 in 10.0 mi SW 8.1 mph - 0.07 in   Overcast
4:15 PM 64.4 °F 55.4 °F 73% 29.69 in 10.0 mi WNW 16.1 mph 24.2 mph N/A   Overcast
4:35 PM 59.0 °F 51.8 °F 77% 29.72 in 10.0 mi West 12.7 mph 21.9 mph N/A   Overcast
4:55 PM 57.2 °F 51.8 °F 82% 29.72 in 10.0 mi WSW 3.5 mph - N/A   Mostly Cloudy
5:15 PM 57.2 °F 48.2 °F 72% 29.73 in 10.0 mi West 12.7 mph 19.6 mph N/A   Overcast
5:35 PM 57.2 °F 48.2 °F 72% 29.74 in 10.0 mi West 12.7 mph 21.9 mph N/A   Overcast
5:55 PM 55.4 °F 46.4 °F 72% 29.76 in 10.0 mi West 10.4 mph 16.1 mph N/A   Overcast
6:15 PM 55.4 °F 46.4 °F 72% 29.76 in 10.0 mi West 6.9 mph - N/A   Overcast
6:35 PM 55.4 °F 46.4 °F 72% 29.77 in 10.0 mi West 8.1 mph - N/A   Overcast
6:55 PM 55.4 °F 46.4 °F 72% 29.77 in 10.0 mi West 9.2 mph - N/A   Scattered Clouds
7:15 PM 55.4 °F 44.6 °F 67% 29.78 in 10.0 mi West 8.1 mph - N/A   Clear
7:35 PM 53.6 °F 44.6 °F 72% 29.79 in 10.0 mi West 4.6 mph - N/A   Clear
7:55 PM 53.6 °F 44.6 °F 72% 29.80 in 10.0 mi West 4.6 mph - N/A   Clear
8:15 PM 53.6 °F 44.6 °F 72% 29.80 in 10.0 mi West 9.2 mph - N/A   Clear
8:35 PM 53.6 °F 44.6 °F 72% 29.81 in 10.0 mi West 6.9 mph - N/A   Clear
8:55 PM 53.6 °F 44.6 °F 72% 29.83 in 10.0 mi West 8.1 mph - N/A   Clear
9:15 PM 53.6 °F 42.8 °F 67% 29.83 in 10.0 mi West 8.1 mph - N/A   Clear
9:35 PM 53.6 °F 42.8 °F 67% 29.84 in 10.0 mi West 11.5 mph - N/A   Clear
9:55 PM 53.6 °F 39.2 °F 58% 29.85 in 10.0 mi West 12.7 mph - N/A   Clear
10:15 PM 51.8 °F 39.2 °F 62% 29.86 in 10.0 mi West 10.4 mph - N/A   Clear
10:35 PM 51.8 °F 39.2 °F 62% 29.86 in 10.0 mi West 11.5 mph - N/A   Clear
10:55 PM 51.8 °F 37.4 °F 58% 29.87 in 10.0 mi WSW 8.1 mph - N/A   Clear
11:15 PM 51.8 °F 37.4 °F 58% 29.87 in 10.0 mi West 8.1 mph 16.1 mph N/A   Clear
11:35 PM 51.8 °F 37.4 °F 58% 29.88 in 10.0 mi West 6.9 mph - N/A   Clear
11:55 PM 50.0 °F 37.4 °F 62% 29.88 in 10.0 mi West 11.5 mph - N/A   Clear